| time (UTC) | temp C | wind direction | speed KPH | gust KPH | rain 1hr cm | rain 24hr cm | rain mn cm | humidity % | barometer mb |
| 20260509162212 | 28 | 331 | 1.6 | 6.4 | 0.00 | 0.00 | 0.00 | 56 | 1010.5 |
| 20260509161713 | 28 | 325 | 1.6 | 11.3 | 0.00 | 0.00 | 0.00 | 57 | 1010.5 |
| 20260509161003 | 28 | 306 | 1.6 | 9.7 | 0.00 | 0.00 | 0.00 | 57 | 1010.4 |
| 20260509160503 | 28 | 307 | 3.2 | 11.3 | 0.00 | 0.00 | 0.00 | 56 | 1010.3 |
| 20260509160003 | 28 | 306 | 3.2 | 12.9 | 0.00 | 0.00 | 0.00 | 56 | 1010.3 |
| 20260509155503 | 28 | 300 | 3.2 | 12.9 | 0.00 | 0.00 | 0.00 | 57 | 1010.2 |
| 20260509155212 | 28 | 288 | 3.2 | 11.3 | 0.00 | 0.00 | 0.00 | 58 | 1010.1 |
| 20260509154503 | 28 | 294 | 3.2 | 9.7 | 0.00 | 0.00 | 0.00 | 60 | 1010.1 |
| 20260509154003 | 27 | 282 | 4.8 | 12.9 | 0.00 | 0.00 | 0.00 | 60 | 1010.2 |
| 20260509153503 | 27 | 280 | 4.8 | 12.9 | 0.00 | 0.00 | 0.00 | 58 | 1010.3 |
| 20260509153212 | 27 | 291 | 3.2 | 12.9 | 0.00 | 0.00 | 0.00 | 59 | 1010.3 |
| 20260509152503 | 27 | 312 | 3.2 | 9.7 | 0.00 | 0.00 | 0.00 | 62 | 1010.2 |
| 20260509152003 | 27 | 302 | 3.2 | 16.1 | 0.00 | 0.00 | 0.00 | 62 | 1010.3 |
| 20260509151503 | 27 | 287 | 3.2 | 16.1 | 0.00 | 0.00 | 0.00 | 63 | 1010.4 |
| 20260509151212 | 27 | 285 | 3.2 | 14.5 | 0.00 | 0.00 | 0.00 | 63 | 1010.3 |
| 20260509150503 | 26 | 271 | 3.2 | 14.5 | 0.00 | 0.00 | 0.00 | 63 | 1010.4 |
| 20260509150003 | 26 | 277 | 3.2 | 12.9 | 0.00 | 0.00 | 0.00 | 62 | 1010.4 |
| 20260509145503 | 26 | 290 | 3.2 | 12.9 | 0.00 | 0.00 | 0.00 | 63 | 1010.4 |
| 20260509145003 | 26 | 285 | 3.2 | 12.9 | 0.00 | 0.00 | 0.00 | 62 | 1010.4 |
| 20260509144713 | 26 | 283 | 3.2 | 11.3 | 0.00 | 0.00 | 0.00 | 63 | 1010.4 |
| 20260509144003 | 26 | 295 | 1.6 | 9.7 | 0.00 | 0.00 | 0.00 | 67 | 1010.5 |
| 20260509143503 | 25 | 288 | 3.2 | 9.7 | 0.00 | 0.00 | 0.00 | 66 | 1010.4 |
| 20260509143003 | 25 | 297 | 3.2 | 12.9 | 0.00 | 0.00 | 0.00 | 68 | 1010.5 |
| 20260509142503 | 25 | 308 | 1.6 | 12.9 | 0.00 | 0.00 | 0.00 | 70 | 1010.4 |
| 20260509142003 | 25 | 319 | 1.6 | 8.0 | 0.00 | 0.00 | 0.00 | 72 | 1010.4 |
| 20260509141503 | 25 | 333 | 1.6 | 8.0 | 0.00 | 0.00 | 0.00 | 74 | 1010.4 |
| 20260509141003 | 24 | 314 | 1.6 | 6.4 | 0.00 | 0.00 | 0.00 | 78 | 1010.4 |
| 20260509140503 | 24 | 328 | 0.0 | 6.4 | 0.00 | 0.00 | 0.00 | 80 | 1010.4 |
| 20260509140214 | 23 | 339 | 1.6 | 8.0 | 0.00 | 0.00 | 0.00 | 80 | 1010.4 |
| 20260509135503 | 23 | 316 | 1.6 | 8.0 | 0.00 | 0.00 | 0.00 | 82 | 1010.4 |
| 20260509135214 | 23 | 283 | 0.0 | 4.8 | 0.00 | 0.00 | 0.00 | 83 | 1010.4 |
| 20260509134503 | 23 | 275 | 1.6 | 9.7 | 0.00 | 0.00 | 0.00 | 84 | 1010.5 |
| 20260509134003 | 22 | 277 | 1.6 | 9.7 | 0.00 | 0.00 | 0.00 | 85 | 1010.4 |
| 20260509133503 | 22 | 282 | 1.6 | 9.7 | 0.00 | 0.00 | 0.00 | 85 | 1010.4 |
| 20260509133214 | 22 | 288 | 0.0 | 9.7 | 0.00 | 0.00 | 0.00 | 86 | 1010.3 |
| 20260509132503 | 22 | 271 | 1.6 | 9.7 | 0.00 | 0.00 | 0.00 | 87 | 1010.3 |
| 20260509132003 | 22 | 268 | 1.6 | 6.4 | 0.00 | 0.00 | 0.00 | 89 | 1010.4 |
| 20260509131712 | 21 | 269 | 1.6 | 6.4 | 0.00 | 0.00 | 0.00 | 89 | 1010.3 |
| 20260509131003 | 21 | 275 | 1.6 | 9.7 | 0.00 | 0.00 | 0.00 | 91 | 1010.3 |
| 20260509130712 | 21 | 271 | 3.2 | 9.7 | 0.00 | 0.03 | 0.00 | 91 | 1010.3 |
| 20260509130003 | 21 | 274 | 3.2 | 9.7 | 0.00 | 0.03 | 0.00 | 91 | 1010.4 |
| 20260509125503 | 20 | 275 | 3.2 | 11.3 | 0.00 | 0.03 | 0.00 | 92 | 1010.4 |
| 20260509125003 | 20 | 275 | 3.2 | 11.3 | 0.00 | 0.03 | 0.00 | 92 | 1010.3 |
| 20260509124503 | 20 | 276 | 1.6 | 6.4 | 0.00 | 0.03 | 0.00 | 92 | 1010.5 |
| 20260509124003 | 20 | 266 | 1.6 | 6.4 | 0.00 | 0.03 | 0.00 | 92 | 1010.3 |
| 20260509123503 | 20 | 274 | 1.6 | 6.4 | 0.00 | 0.03 | 0.00 | 92 | 1010.3 |
| 20260509123003 | 20 | 284 | 1.6 | 4.8 | 0.00 | 0.03 | 0.00 | 92 | 1010.2 |
| 20260509122503 | 20 | 288 | 1.6 | 6.4 | 0.00 | 0.03 | 0.00 | 93 | 1010.1 |
| 20260509122213 | 20 | 291 | 0.0 | 6.4 | 0.00 | 0.03 | 0.00 | 92 | 1010.1 |
| 20260509121503 | 20 | 302 | 0.0 | 3.2 | 0.00 | 0.03 | 0.00 | 92 | 1010.0 |
| 20260509121003 | 20 | 280 | 0.0 | 4.8 | 0.00 | 0.03 | 0.00 | 92 | 1010.0 |
| 20260509120503 | 20 | 281 | 1.6 | 6.4 | 0.00 | 0.03 | 0.00 | 92 | 1010.0 |
| 20260509120003 | 20 | 287 | 1.6 | 6.4 | 0.00 | 0.03 | 0.00 | 92 | 1009.9 |
| 20260509115503 | 20 | 294 | 1.6 | 6.4 | 0.00 | 0.03 | 0.00 | 92 | 1009.9 |
| 20260509115213 | 20 | 297 | 1.6 | 6.4 | 0.00 | 0.03 | 0.00 | 92 | 1009.9 |
| 20260509114503 | 20 | 300 | 1.6 | 6.4 | 0.00 | 0.03 | 0.00 | 92 | 1009.7 |
| 20260509114003 | 20 | 294 | 1.6 | 6.4 | 0.00 | 0.03 | 0.00 | 92 | 1009.7 |
| 20260509113503 | 20 | 279 | 1.6 | 9.7 | 0.00 | 0.03 | 0.00 | 91 | 1009.4 |
| 20260509113213 | 20 | 282 | 1.6 | 9.7 | 0.00 | 0.03 | 0.00 | 91 | 1009.3 |
| 20260509112503 | 20 | 287 | 1.6 | 8.0 | 0.00 | 0.03 | 0.00 | 90 | 1009.4 |
| 20260509112003 | 20 | 281 | 3.2 | 12.9 | 0.00 | 0.03 | 0.00 | 90 | 1009.3 |
| 20260509111503 | 20 | 268 | 3.2 | 12.9 | 0.00 | 0.03 | 0.00 | 90 | 1009.3 |
| 20260509111003 | 20 | 268 | 3.2 | 11.3 | 0.00 | 0.03 | 0.00 | 90 | 1009.2 |
| 20260509110503 | 20 | 279 | 3.2 | 11.3 | 0.00 | 0.03 | 0.00 | 90 | 1008.9 |
| 20260509110003 | 20 | 267 | 3.2 | 11.3 | 0.00 | 0.03 | 0.00 | 89 | 1009.0 |
| 20260509105503 | 20 | 263 | 3.2 | 14.5 | 0.00 | 0.03 | 0.00 | 89 | 1009.0 |
| 20260509105212 | 20 | 268 | 3.2 | 14.5 | 0.00 | 0.03 | 0.00 | 89 | 1008.9 |
| 20260509104503 | 20 | 261 | 3.2 | 9.7 | 0.00 | 0.03 | 0.00 | 89 | 1009.1 |
| 20260509104003 | 20 | 265 | 3.2 | 9.7 | 0.00 | 0.03 | 0.00 | 89 | 1008.8 |
| 20260509103503 | 20 | 264 | 3.2 | 9.7 | 0.00 | 0.03 | 0.00 | 89 | 1008.8 |
| 20260509103212 | 20 | 258 | 1.6 | 9.7 | 0.00 | 0.03 | 0.00 | 89 | 1008.9 |
| 20260509102503 | 20 | 259 | 0.0 | 3.2 | 0.00 | 0.05 | 0.00 | 88 | 1008.6 |
| 20260509102003 | 20 | 260 | 0.0 | 1.6 | 0.00 | 0.08 | 0.00 | 88 | 1008.4 |
| 20260509101503 | 20 | 260 | 0.0 | 3.2 | 0.00 | 0.30 | 0.00 | 87 | 1008.4 |
| 20260509101003 | 20 | 260 | 0.0 | 3.2 | 0.00 | 0.36 | 0.00 | 86 | 1008.5 |
| 20260509100503 | 20 | 0 | 0.0 | 0.0 | 0.00 | 0.46 | 0.00 | 86 | 1008.4 |
| 20260509100003 | 20 | 0 | 0.0 | 0.0 | 0.00 | 0.46 | 0.00 | 85 | 1008.4 |
| 20260509095503 | 21 | 0 | 0.0 | 0.0 | 0.00 | 0.46 | 0.00 | 84 | 1008.4 |
| 20260509095003 | 21 | 0 | 0.0 | 0.0 | 0.00 | 0.46 | 0.00 | 84 | 1008.2 |
| 20260509094503 | 21 | 260 | 0.0 | 1.6 | 0.00 | 0.46 | 0.00 | 83 | 1008.1 |
| 20260509094003 | 21 | 260 | 0.0 | 1.6 | 0.00 | 0.46 | 0.00 | 82 | 1008.1 |
| 20260509093503 | 21 | 260 | 0.0 | 1.6 | 0.00 | 0.46 | 0.00 | 82 | 1007.9 |
| 20260509093003 | 21 | 271 | 1.6 | 6.4 | 0.00 | 0.48 | 0.00 | 80 | 1007.7 |
| 20260509092503 | 21 | 276 | 1.6 | 6.4 | 0.00 | 0.48 | 0.00 | 79 | 1007.7 |
| 20260509092214 | 22 | 308 | 0.0 | 4.8 | 0.00 | 0.48 | 0.00 | 79 | 1007.7 |
| 20260509091503 | 22 | 346 | 1.6 | 11.3 | 0.00 | 0.48 | 0.00 | 78 | 1007.5 |
| 20260509091214 | 22 | 351 | 1.6 | 11.3 | 0.00 | 0.48 | 0.00 | 77 | 1007.5 |
| 20260509090713 | 22 | 360 | 0.0 | 9.7 | 0.00 | 0.48 | 0.00 | 76 | 1007.6 |
| 20260509090003 | 22 | 356 | 0.0 | 6.4 | 0.00 | 0.48 | 0.00 | 74 | 1007.6 |
| 20260509085503 | 22 | 295 | 1.6 | 8.0 | 0.00 | 0.48 | 0.00 | 73 | 1007.5 |
| 20260509085003 | 22 | 215 | 3.2 | 12.9 | 0.00 | 0.48 | 0.00 | 73 | 1007.6 |
| 20260509084713 | 22 | 226 | 4.8 | 14.5 | 0.00 | 0.48 | 0.00 | 74 | 1008.0 |
| 20260509084003 | 22 | 188 | 4.8 | 14.5 | 0.00 | 0.48 | 0.00 | 78 | 1008.0 |
| 20260509083503 | 21 | 144 | 6.4 | 14.5 | 0.00 | 0.48 | 0.00 | 82 | 1007.0 |
| 20260509083214 | 22 | 145 | 6.4 | 14.5 | 0.00 | 0.48 | 0.00 | 82 | 1005.5 |
| 20260509082503 | 22 | 139 | 6.4 | 19.3 | 0.00 | 0.51 | 0.00 | 81 | 1005.4 |
| 20260509082003 | 21 | 137 | 6.4 | 19.3 | 0.00 | 0.53 | 0.00 | 81 | 1004.9 |
| 20260509081503 | 21 | 161 | 4.8 | 14.5 | 0.00 | 0.53 | 0.00 | 81 | 1005.4 |
| 20260509081003 | 22 | 147 | 4.8 | 14.5 | 0.00 | 0.53 | 0.00 | 81 | 1006.1 |
| 20260509080503 | 22 | 129 | 6.4 | 14.5 | 0.00 | 0.53 | 0.00 | 81 | 1005.4 |
| 20260509080003 | 22 | 149 | 4.8 | 14.5 | 0.00 | 0.53 | 0.00 | 80 | 1006.0 |
| 20260509075503 | 21 | 172 | 4.8 | 17.7 | 0.00 | 0.53 | 0.00 | 84 | 1006.5 |
| 20260509075003 | 21 | 172 | 4.8 | 17.7 | 0.00 | 0.53 | 0.00 | 89 | 1007.1 |
| 20260509074712 | 21 | 173 | 4.8 | 14.5 | 0.00 | 0.53 | 0.00 | 90 | 1007.4 |
| 20260509074003 | 21 | 158 | 4.8 | 12.9 | 0.00 | 0.53 | 0.00 | 91 | 1008.0 |
| 20260509073503 | 21 | 195 | 4.8 | 11.3 | 0.00 | 0.56 | 0.00 | 92 | 1008.3 |
| 20260509073003 | 21 | 212 | 4.8 | 12.9 | 0.00 | 0.56 | 0.00 | 92 | 1008.5 |
| 20260509072503 | 21 | 206 | 4.8 | 12.9 | 0.00 | 0.61 | 0.00 | 92 | 1009.0 |
| 20260509072003 | 21 | 200 | 3.2 | 11.3 | 0.00 | 0.61 | 0.00 | 92 | 1009.1 |
| 20260509071503 | 21 | 181 | 4.8 | 16.1 | 0.00 | 0.64 | 0.00 | 92 | 1009.3 |
| 20260509071213 | 21 | 164 | 6.4 | 16.1 | 0.00 | 0.64 | 0.00 | 92 | 1009.3 |
| 20260509070712 | 21 | 180 | 4.8 | 16.1 | 0.00 | 0.69 | 0.00 | 92 | 1009.3 |
| 20260509070003 | 20 | 201 | 3.2 | 8.0 | 0.00 | 0.74 | 0.00 | 92 | 1009.6 |
| 20260509065712 | 20 | 209 | 3.2 | 8.0 | 0.00 | 0.74 | 0.00 | 92 | 1009.9 |
| 20260509065003 | 20 | 207 | 3.2 | 6.4 | 0.00 | 0.74 | 0.00 | 92 | 1010.2 |
| 20260509064503 | 20 | 188 | 1.6 | 6.4 | 0.00 | 0.74 | 0.00 | 92 | 1010.1 |
| 20260509064213 | 20 | 178 | 1.6 | 6.4 | 0.00 | 0.74 | 0.00 | 92 | 1010.1 |
| 20260509063503 | 20 | 214 | 1.6 | 4.8 | 0.00 | 0.74 | 0.00 | 92 | 1010.5 |
| 20260509063003 | 20 | 228 | 1.6 | 4.8 | 0.00 | 0.74 | 0.00 | 92 | 1010.6 |
| 20260509062503 | 20 | 234 | 1.6 | 4.8 | 0.00 | 0.74 | 0.00 | 92 | 1010.6 |
| 20260509062003 | 20 | 270 | 0.0 | 4.8 | 0.00 | 0.74 | 0.00 | 91 | 1010.5 |
| 20260509061503 | 20 | 251 | 1.6 | 4.8 | 0.00 | 0.74 | 0.00 | 91 | 1010.7 |
| 20260509061003 | 20 | 248 | 0.0 | 4.8 | 0.00 | 0.74 | 0.00 | 91 | 1010.8 |
| 20260509060503 | 20 | 273 | 0.0 | 4.8 | 0.00 | 0.74 | 0.00 | 91 | 1010.7 |
| 20260509060003 | 20 | 0 | 0.0 | 0.0 | 0.00 | 0.74 | 0.00 | 91 | 1010.6 |
| 20260509055503 | 20 | 140 | 0.0 | 1.6 | 0.00 | 0.74 | 0.00 | 90 | 1010.5 |
| 20260509055003 | 20 | 140 | 0.0 | 1.6 | 0.00 | 0.74 | 0.00 | 90 | 1010.5 |
| 20260509054503 | 20 | 140 | 1.6 | 4.8 | 0.00 | 0.74 | 0.00 | 90 | 1010.5 |
| 20260509054003 | 20 | 141 | 0.0 | 4.8 | 0.00 | 0.74 | 0.00 | 89 | 1010.2 |
| 20260509053503 | 21 | 307 | 0.0 | 3.2 | 0.00 | 0.74 | 0.00 | 89 | 1010.2 |
| 20260509053003 | 21 | 306 | 0.0 | 3.2 | 0.00 | 0.74 | 0.00 | 89 | 1010.7 |
| 20260509052713 | 21 | 306 | 0.0 | 3.2 | 0.00 | 0.74 | 0.00 | 88 | 1010.5 |
| 20260509052003 | 21 | 341 | 0.0 | 4.8 | 0.00 | 0.74 | 0.00 | 88 | 1011.0 |
| 20260509051713 | 21 | 331 | 1.6 | 11.3 | 0.00 | 0.74 | 0.00 | 88 | 1010.9 |
| 20260509051212 | 21 | 339 | 1.6 | 11.3 | 0.00 | 0.74 | 0.00 | 88 | 1011.1 |
| 20260509050503 | 21 | 343 | 1.6 | 8.0 | 0.00 | 0.74 | 0.00 | 87 | 1011.2 |
| 20260509050003 | 21 | 342 | 0.0 | 8.0 | 0.00 | 0.74 | 0.00 | 87 | 1011.3 |
| 20260509045503 | 21 | 327 | 0.0 | 3.2 | 0.00 | 0.74 | 0.74 | 88 | 1011.5 |
| 20260509045003 | 21 | 164 | 0.0 | 1.6 | 0.00 | 0.74 | 0.74 | 87 | 1011.0 |
| 20260509044503 | 21 | 163 | 0.0 | 1.6 | 0.00 | 0.74 | 0.74 | 87 | 1010.4 |
| 20260509044003 | 22 | 166 | 0.0 | 1.6 | 0.00 | 0.74 | 0.74 | 87 | 1010.0 |
| 20260509043713 | 22 | 166 | 0.0 | 1.6 | 0.00 | 0.74 | 0.74 | 87 | 1010.0 |
| 20260509043003 | 22 | 166 | 0.0 | 4.8 | 0.00 | 0.74 | 0.74 | 87 | 1009.8 |
| 20260509042503 | 22 | 149 | 1.6 | 4.8 | 0.00 | 0.74 | 0.74 | 86 | 1009.6 |
| 20260509042003 | 22 | 117 | 1.6 | 8.0 | 0.00 | 0.74 | 0.74 | 86 | 1009.5 |
| 20260509041503 | 22 | 128 | 1.6 | 8.0 | 0.00 | 0.74 | 0.74 | 86 | 1009.3 |
| 20260509041003 | 22 | 124 | 1.6 | 6.4 | 0.00 | 0.74 | 0.74 | 86 | 1009.2 |
| 20260509040503 | 22 | 123 | 1.6 | 6.4 | 0.00 | 0.74 | 0.74 | 86 | 1009.3 |
| 20260509040003 | 22 | 145 | 1.6 | 4.8 | 0.00 | 0.74 | 0.74 | 86 | 1009.3 |
| 20260509035503 | 22 | 133 | 1.6 | 4.8 | 0.00 | 0.74 | 0.74 | 86 | 1009.3 |
| 20260509035003 | 22 | 126 | 1.6 | 4.8 | 0.00 | 0.74 | 0.74 | 86 | 1009.5 |
| 20260509034503 | 22 | 112 | 1.6 | 4.8 | 0.00 | 0.74 | 0.74 | 85 | 1009.3 |
| 20260509034003 | 22 | 87 | 1.6 | 4.8 | 0.00 | 0.74 | 0.74 | 85 | 1009.5 |
| 20260509033503 | 22 | 64 | 1.6 | 4.8 | 0.00 | 0.74 | 0.74 | 85 | 1009.5 |
| 20260509033003 | 22 | 45 | 1.6 | 8.0 | 0.00 | 0.74 | 0.74 | 85 | 1009.5 |
| 20260509032503 | 22 | 31 | 1.6 | 9.7 | 0.00 | 0.74 | 0.74 | 84 | 1009.7 |
| 20260509032214 | 22 | 31 | 1.6 | 9.7 | 0.00 | 0.74 | 0.74 | 84 | 1009.9 |
| 20260509031503 | 22 | 24 | 0.0 | 3.2 | 0.00 | 0.74 | 0.74 | 84 | 1009.8 |
| 20260509031003 | 22 | 46 | 1.6 | 8.0 | 0.00 | 0.74 | 0.74 | 85 | 1009.6 |
| 20260509030503 | 22 | 50 | 1.6 | 8.0 | 0.00 | 0.74 | 0.74 | 85 | 1009.3 |
| 20260509030003 | 22 | 76 | 1.6 | 9.7 | 0.00 | 0.74 | 0.74 | 84 | 1009.0 |
| 20260509025503 | 22 | 108 | 3.2 | 11.3 | 0.00 | 0.74 | 0.74 | 84 | 1008.6 |
| 20260509025214 | 22 | 115 | 3.2 | 11.3 | 0.00 | 0.74 | 0.74 | 84 | 1008.4 |
| 20260509024503 | 22 | 116 | 3.2 | 12.9 | 0.00 | 0.74 | 0.74 | 84 | 1008.2 |
| 20260509024003 | 22 | 112 | 3.2 | 8.0 | 0.00 | 0.74 | 0.74 | 84 | 1008.3 |
| 20260509023503 | 22 | 121 | 3.2 | 9.7 | 0.00 | 0.74 | 0.74 | 84 | 1008.2 |
| 20260509023003 | 22 | 127 | 4.8 | 16.1 | 0.00 | 0.74 | 0.74 | 83 | 1008.0 |
| 20260509022503 | 22 | 124 | 4.8 | 16.1 | 0.00 | 0.74 | 0.74 | 83 | 1007.9 |
| 20260509022213 | 22 | 128 | 3.2 | 16.1 | 0.00 | 0.74 | 0.74 | 83 | 1007.8 |
| 20260509021503 | 22 | 136 | 3.2 | 6.4 | 0.00 | 0.74 | 0.74 | 83 | 1007.7 |
| 20260509021003 | 22 | 132 | 3.2 | 9.7 | 0.00 | 0.74 | 0.74 | 83 | 1007.7 |
| 20260509020712 | 22 | 133 | 3.2 | 9.7 | 0.00 | 0.74 | 0.74 | 83 | 1007.7 |
| 20260509020003 | 22 | 130 | 3.2 | 11.3 | 0.00 | 0.74 | 0.74 | 83 | 1007.6 |
| 20260509015712 | 22 | 128 | 3.2 | 11.3 | 0.00 | 0.74 | 0.74 | 82 | 1007.5 |
| 20260509015213 | 22 | 130 | 3.2 | 11.3 | 0.00 | 0.74 | 0.74 | 82 | 1007.5 |
| 20260509014503 | 22 | 131 | 3.2 | 8.0 | 0.00 | 0.74 | 0.74 | 82 | 1007.5 |
| 20260509014003 | 22 | 128 | 3.2 | 11.3 | 0.00 | 0.74 | 0.74 | 82 | 1007.5 |
| 20260509013712 | 22 | 130 | 3.2 | 11.3 | 0.00 | 0.74 | 0.74 | 81 | 1007.6 |
| 20260509013003 | 22 | 128 | 3.2 | 12.9 | 0.00 | 0.74 | 0.74 | 81 | 1007.8 |
| 20260509012503 | 23 | 124 | 4.8 | 12.9 | 0.00 | 0.74 | 0.74 | 80 | 1007.9 |
| 20260509012003 | 23 | 123 | 3.2 | 12.9 | 0.00 | 0.74 | 0.74 | 80 | 1007.9 |
| 20260509011714 | 23 | 126 | 3.2 | 12.9 | 0.00 | 0.74 | 0.74 | 80 | 1008.0 |
| 20260509011003 | 23 | 134 | 3.2 | 8.0 | 0.00 | 0.74 | 0.74 | 80 | 1008.0 |
| 20260509010503 | 23 | 141 | 1.6 | 6.4 | 0.00 | 0.74 | 0.74 | 80 | 1008.1 |
| 20260509010003 | 23 | 168 | 1.6 | 6.4 | 0.00 | 0.74 | 0.74 | 80 | 1008.0 |
| 20260509005503 | 23 | 143 | 1.6 | 8.0 | 0.00 | 0.74 | 0.74 | 80 | 1007.9 |
| 20260509005003 | 23 | 121 | 3.2 | 12.9 | 0.00 | 0.74 | 0.74 | 80 | 1007.8 |
| 20260509004503 | 23 | 126 | 4.8 | 12.9 | 0.00 | 0.74 | 0.74 | 80 | 1007.7 |
| 20260509004003 | 23 | 127 | 4.8 | 14.5 | 0.00 | 0.74 | 0.74 | 80 | 1007.6 |
| 20260509003503 | 23 | 130 | 4.8 | 14.5 | 0.00 | 0.74 | 0.74 | 79 | 1007.6 |
| 20260509003003 | 23 | 135 | 4.8 | 12.9 | 0.00 | 0.74 | 0.74 | 79 | 1007.4 |
| 20260509002714 | 23 | 127 | 4.8 | 12.9 | 0.00 | 0.74 | 0.74 | 79 | 1007.4 |
| 20260509002212 | 23 | 121 | 4.8 | 12.9 | 0.00 | 0.74 | 0.74 | 78 | 1007.5 |
| 20260509001503 | 23 | 131 | 4.8 | 12.9 | 0.00 | 0.74 | 0.74 | 78 | 1007.4 |
| 20260509001003 | 23 | 148 | 4.8 | 11.3 | 0.00 | 0.74 | 0.74 | 78 | 1007.3 |
| 20260509000714 | 23 | 157 | 3.2 | 11.3 | 0.00 | 0.74 | 0.74 | 77 | 1007.4 |
| 20260509000003 | 23 | 145 | 4.8 | 11.3 | 0.00 | 0.74 | 0.74 | 77 | 1007.5 |
| 20260508235503 | 23 | 129 | 4.8 | 12.9 | 0.00 | 0.74 | 0.74 | 76 | 1007.5 |
| 20260508235003 | 23 | 128 | 4.8 | 12.9 | 0.00 | 0.74 | 0.74 | 76 | 1007.5 |
| 20260508234503 | 23 | 131 | 3.2 | 11.3 | 0.00 | 0.74 | 0.74 | 76 | 1007.6 |
| 20260508234212 | 24 | 126 | 4.8 | 12.9 | 0.00 | 0.74 | 0.74 | 76 | 1007.8 |
| 20260508233503 | 23 | 126 | 4.8 | 12.9 | 0.00 | 0.74 | 0.74 | 76 | 1007.7 |
| 20260508233003 | 23 | 131 | 4.8 | 12.9 | 0.00 | 0.74 | 0.74 | 75 | 1007.7 |
| 20260508232503 | 24 | 141 | 4.8 | 12.9 | 0.00 | 0.74 | 0.74 | 75 | 1007.9 |
| 20260508232003 | 24 | 142 | 4.8 | 12.9 | 0.00 | 0.74 | 0.74 | 74 | 1007.9 |
| 20260508231713 | 24 | 134 | 4.8 | 14.5 | 0.00 | 0.74 | 0.74 | 74 | 1007.9 |
| 20260508231003 | 24 | 127 | 6.4 | 14.5 | 0.00 | 0.74 | 0.74 | 74 | 1007.9 |
| 20260508230713 | 24 | 128 | 4.8 | 11.3 | 0.00 | 0.74 | 0.74 | 74 | 1007.9 |
| 20260508230003 | 24 | 137 | 6.4 | 16.1 | 0.00 | 0.74 | 0.74 | 73 | 1007.7 |
| 20260508225503 | 24 | 133 | 4.8 | 16.1 | 0.00 | 0.74 | 0.74 | 73 | 1007.9 |
| 20260508225003 | 24 | 117 | 4.8 | 14.5 | 0.00 | 0.74 | 0.74 | 72 | 1007.8 |
| 20260508224503 | 24 | 123 | 6.4 | 17.7 | 0.00 | 0.74 | 0.74 | 72 | 1007.9 |
| 20260508224003 | 25 | 122 | 6.4 | 17.7 | 0.00 | 0.74 | 0.74 | 71 | 1007.8 |
| 20260508223503 | 25 | 121 | 8.0 | 17.7 | 0.00 | 0.74 | 0.74 | 72 | 1007.8 |
| 20260508223003 | 25 | 125 | 6.4 | 17.7 | 0.00 | 0.74 | 0.74 | 72 | 1007.9 |
| 20260508222713 | 25 | 124 | 6.4 | 17.7 | 0.00 | 0.74 | 0.74 | 71 | 1008.0 |
| 20260508222003 | 25 | 125 | 8.0 | 19.3 | 0.00 | 0.74 | 0.74 | 70 | 1007.9 |
| 20260508221503 | 25 | 122 | 8.0 | 22.5 | 0.00 | 0.74 | 0.74 | 69 | 1008.0 |
| 20260508221003 | 25 | 124 | 8.0 | 22.5 | 0.00 | 0.74 | 0.74 | 68 | 1008.0 |
| 20260508220713 | 25 | 124 | 9.7 | 22.5 | 0.00 | 0.74 | 0.74 | 68 | 1007.9 |
| 20260508220003 | 25 | 120 | 8.0 | 19.3 | 0.00 | 0.74 | 0.74 | 68 | 1007.9 |
| 20260508215503 | 25 | 115 | 6.4 | 14.5 | 0.00 | 0.74 | 0.74 | 67 | 1007.9 |
| 20260508215003 | 25 | 114 | 6.4 | 14.5 | 0.00 | 0.74 | 0.74 | 68 | 1008.0 |
| 20260508214713 | 25 | 122 | 6.4 | 14.5 | 0.00 | 0.74 | 0.74 | 68 | 1008.0 |
| 20260508214003 | 25 | 131 | 6.4 | 14.5 | 0.00 | 0.74 | 0.74 | 67 | 1008.0 |
| 20260508213503 | 25 | 126 | 8.0 | 20.9 | 0.00 | 0.74 | 0.74 | 67 | 1008.0 |
| 20260508213003 | 25 | 121 | 8.0 | 20.9 | 0.00 | 0.74 | 0.74 | 67 | 1008.1 |
| 20260508212503 | 25 | 118 | 8.0 | 17.7 | 0.00 | 0.74 | 0.74 | 67 | 1008.1 |
| 20260508212003 | 25 | 115 | 8.0 | 17.7 | 0.00 | 0.74 | 0.74 | 68 | 1008.1 |
| 20260508211712 | 25 | 116 | 8.0 | 16.1 | 0.00 | 0.74 | 0.74 | 67 | 1008.2 |
| 20260508211003 | 25 | 121 | 6.4 | 16.1 | 0.00 | 0.74 | 0.74 | 68 | 1008.4 |
| 20260508210503 | 25 | 121 | 4.8 | 12.9 | 0.00 | 0.74 | 0.74 | 67 | 1008.4 |
| 20260508210213 | 25 | 120 | 4.8 | 12.9 | 0.00 | 0.74 | 0.74 | 68 | 1008.6 |
| 20260508205503 | 25 | 119 | 4.8 | 12.9 | 0.00 | 0.74 | 0.74 | 68 | 1008.6 |
| 20260508205003 | 25 | 109 | 4.8 | 12.9 | 0.00 | 0.74 | 0.74 | 68 | 1008.6 |
| 20260508204503 | 25 | 90 | 4.8 | 11.3 | 0.00 | 0.74 | 0.74 | 68 | 1008.6 |
| 20260508204003 | 25 | 103 | 4.8 | 9.7 | 0.00 | 0.74 | 0.74 | 67 | 1008.6 |
| 20260508203503 | 25 | 125 | 4.8 | 16.1 | 0.00 | 0.74 | 0.74 | 69 | 1008.6 |
| 20260508203003 | 24 | 116 | 6.4 | 16.1 | 0.00 | 0.74 | 0.74 | 68 | 1009.2 |
| 20260508202503 | 23 | 105 | 6.4 | 16.1 | 0.00 | 0.74 | 0.74 | 71 | 1009.4 |
| 20260508202003 | 23 | 121 | 6.4 | 16.1 | 0.00 | 0.74 | 0.74 | 70 | 1009.7 |
| 20260508201503 | 23 | 132 | 6.4 | 17.7 | 0.00 | 0.74 | 0.74 | 71 | 1009.9 |
| 20260508201213 | 23 | 137 | 4.8 | 17.7 | 0.00 | 0.74 | 0.74 | 71 | 1010.1 |
| 20260508200503 | 23 | 132 | 4.8 | 14.5 | 0.00 | 0.74 | 0.74 | 71 | 1010.4 |
| 20260508200003 | 23 | 135 | 4.8 | 14.5 | 0.00 | 0.74 | 0.74 | 70 | 1010.5 |
| 20260508195714 | 23 | 146 | 4.8 | 11.3 | 0.00 | 0.74 | 0.74 | 70 | 1010.6 |
| 20260508195003 | 23 | 138 | 4.8 | 12.9 | 0.00 | 0.74 | 0.74 | 70 | 1010.4 |
| 20260508194503 | 23 | 120 | 6.4 | 12.9 | 0.00 | 0.74 | 0.74 | 70 | 1010.4 |
| 20260508194003 | 23 | 121 | 6.4 | 12.9 | 0.00 | 0.74 | 0.74 | 69 | 1010.4 |
| 20260508193503 | 23 | 130 | 4.8 | 12.9 | 0.00 | 0.74 | 0.74 | 69 | 1010.4 |
| 20260508193003 | 24 | 144 | 4.8 | 11.3 | 0.00 | 0.74 | 0.74 | 69 | 1010.3 |
| 20260508192503 | 23 | 140 | 4.8 | 11.3 | 0.00 | 0.74 | 0.74 | 69 | 1010.3 |
| 20260508192003 | 23 | 123 | 6.4 | 16.1 | 0.00 | 0.74 | 0.74 | 69 | 1010.4 |
| 20260508191503 | 24 | 123 | 6.4 | 16.1 | 0.00 | 0.74 | 0.74 | 69 | 1010.5 |
| 20260508191003 | 24 | 122 | 6.4 | 16.1 | 0.00 | 0.74 | 0.74 | 68 | 1010.5 |
| 20260508190503 | 24 | 120 | 6.4 | 14.5 | 0.00 | 0.74 | 0.74 | 68 | 1010.5 |
| 20260508190213 | 24 | 120 | 6.4 | 14.5 | 0.00 | 0.74 | 0.74 | 68 | 1010.5 |
| 20260508185503 | 24 | 126 | 4.8 | 14.5 | 0.00 | 0.74 | 0.74 | 67 | 1010.6 |
| 20260508185003 | 25 | 137 | 4.8 | 14.5 | 0.00 | 0.74 | 0.74 | 67 | 1010.6 |
| 20260508184503 | 24 | 146 | 4.8 | 9.7 | 0.00 | 0.74 | 0.74 | 67 | 1010.5 |
| 20260508184003 | 25 | 148 | 4.8 | 14.5 | 0.00 | 0.74 | 0.74 | 67 | 1010.6 |
| 20260508183503 | 25 | 147 | 4.8 | 14.5 | 0.00 | 0.74 | 0.74 | 66 | 1010.7 |
| 20260508183003 | 25 | 132 | 4.8 | 11.3 | 0.00 | 0.74 | 0.74 | 66 | 1010.8 |
| 20260508182503 | 25 | 141 | 4.8 | 12.9 | 0.00 | 0.74 | 0.74 | 66 | 1010.9 |
| 20260508182003 | 25 | 138 | 4.8 | 12.9 | 0.00 | 0.74 | 0.74 | 65 | 1011.0 |
| 20260508181713 | 25 | 131 | 4.8 | 12.9 | 0.00 | 0.74 | 0.74 | 66 | 1011.0 |
| 20260508181212 | 25 | 132 | 4.8 | 16.1 | 0.00 | 0.74 | 0.74 | 66 | 1011.1 |
| 20260508180503 | 25 | 144 | 4.8 | 12.9 | 0.00 | 0.74 | 0.74 | 64 | 1011.2 |
| 20260508180003 | 25 | 128 | 6.4 | 14.5 | 0.00 | 0.74 | 0.74 | 65 | 1011.2 |
| 20260508175503 | 24 | 124 | 6.4 | 14.5 | 0.00 | 0.74 | 0.74 | 66 | 1011.4 |
| 20260508175003 | 25 | 125 | 4.8 | 12.9 | 0.00 | 0.74 | 0.74 | 65 | 1011.6 |
| 20260508174713 | 25 | 131 | 4.8 | 14.5 | 0.00 | 0.74 | 0.74 | 65 | 1011.5 |
| 20260508174003 | 25 | 136 | 4.8 | 14.5 | 0.00 | 0.74 | 0.74 | 66 | 1011.6 |
| 20260508173503 | 24 | 122 | 4.8 | 11.3 | 0.00 | 0.74 | 0.74 | 68 | 1011.7 |
| 20260508173212 | 24 | 121 | 4.8 | 12.9 | 0.00 | 0.74 | 0.74 | 67 | 1011.6 |
| 20260508172503 | 24 | 132 | 6.4 | 12.9 | 0.00 | 0.74 | 0.74 | 69 | 1011.7 |
| 20260508172003 | 24 | 143 | 6.4 | 14.5 | 0.00 | 0.74 | 0.74 | 68 | 1011.9 |
| 20260508171503 | 24 | 171 | 4.8 | 14.5 | 0.00 | 0.74 | 0.74 | 69 | 1011.9 |
| 20260508171003 | 24 | 158 | 4.8 | 12.9 | 0.00 | 0.74 | 0.74 | 69 | 1011.9 |
| 20260508170503 | 23 | 129 | 4.8 | 12.9 | 0.00 | 0.74 | 0.74 | 69 | 1011.9 |
| 20260508170003 | 23 | 125 | 4.8 | 12.9 | 0.00 | 0.74 | 0.74 | 71 | 1012.0 |
| 20260508165503 | 23 | 126 | 4.8 | 12.9 | 0.00 | 0.74 | 0.74 | 69 | 1012.2 |
| 20260508165003 | 23 | 127 | 3.2 | 11.3 | 0.00 | 0.74 | 0.74 | 70 | 1012.3 |
| 20260508164713 | 23 | 127 | 3.2 | 11.3 | 0.00 | 0.74 | 0.74 | 70 | 1012.3 |
| 20260508164003 | 23 | 117 | 4.8 | 12.9 | 0.00 | 0.74 | 0.74 | 71 | 1012.5 |
| 20260508163503 | 23 | 120 | 3.2 | 12.9 | 0.00 | 0.74 | 0.74 | 69 | 1012.6 |
| 20260508163003 | 23 | 139 | 4.8 | 12.9 | 0.00 | 0.74 | 0.74 | 71 | 1012.6 |
| 20260508162503 | 22 | 138 | 3.2 | 12.9 | 0.00 | 0.74 | 0.74 | 71 | 1012.7 |